Location: Neuvy Saint Sepulchre
(46.5953°N, 1.8122°E)
Time: 09:42:34
(UTC+01:00)

Envisat - Pass Details

Date: 24 October 2021
Orbit: 764 x 766 km, 98.2° (Epoch: 28 November)

Event Time Altitude Azimuth Distance (km) Brightness Sun altitude
Rises 06:17:34 0° 21° (NNE) 3,243 6.6 -22.2°
Reaches altitude 10° 06:20:07 10° 31° (NNE) 2,311 5.9 -21.7°
Maximum altitude 06:24:41 33° 95° (E) 1,274 4.8 -20.9°
Drops below altitude 10° 06:29:14 10° 159° (SSE) 2,295 5.7 -20.2°
Sets 06:31:44 0° 169° (S) 3,215 6.3 -19.7°
